Aérodrome :
LOGIN :

S'inscrire | Disclaimer

   EN    FR    IT 

 










Légende :    VFR   VFR Marginal   IFR   IFR Intensif   IFR Très Intensif
Visi : 
Plafond : 
>= 8 km
>= 3000ft
5 à 8 km
1000 à 3000 ft
1500m à 5 km
500 à 1000 ft
800 à 1500m
200 à 500 ft
< 800m
< 200 ft
Symboles :   Orages  Brouillard  Fortes neiges  Fortes précipitations  Vent > 20 kt
SIGMETs :   Divers  Orages  Givrage  Turbulence  Onde Orograph.  Cendres Volcan.







- Altitude de l'aérodrome : 302 ft
- Code IATA : CGN


EDDK - Cologne Bonn

DERNIER METAR :
  • 160720Z 17003KT 090V240 CAVOK 19/14 Q1017 NOSIG

METARs EXPIRÉS :
  • 160650Z 14004KT 090V190 CAVOK 18/14 Q1017 NOSIG
  • 160620Z VRB01KT CAVOK 16/14 Q1018 NOSIG
  • 160550Z VRB01KT CAVOK 14/13 Q1018 NOSIG
  • 160520Z VRB01KT 9999 MIFG NSC 13/13 Q1018 NOSIG
  • 160450Z VRB02KT 9999 MIFG NSC 12/12 Q1018 NOSIG

TAF TAF EDDK
Valide du 16 à 06h jusqu'au 17 à 12h UTC


160500Z 1606/1712 16005KT CAVOK
BECMG 1615/1618 VRB03KT
BECMG 1704/1707 32007KT
PROB30
TEMPO 1705/1710 4500 SHRA BKN012TCU
Pas de NOTAMs connus pour ce terrain.



MET'MAP, la Météo Aéronautique d'un coup d'oeil ! - Copyright ORBIFLY Décembre 2007 - Disclaimer

ORBIFLY MET'MAP TEAM :

Programmation & Développement : Alexandra Zaïnal
Conception & Développement : Baudouin d'Aumeries
Co-Programmation & Développement : Marc-Olivier Méhu
Soutien technique & logistique : Manuel Goepfert

Contact : metmap@orbifly.com




SOURCES & CREDITS :

   NOAA